Find Starlink 3238

NORAD ID: 49734 Int'l Des: 2021-115 Owner: SPXS Country: US Constellation: starlink operational
LEOCIRCULAR

現在のビュー

3D地球を読み込み中...

About Starlink 3238

Starlink 3238 (NORAD 49734) is a starlink constellation satellite (v1.5) launched Dec 2, 2021 by SPXS of US. It operates in LEO, CIRCULAR orbit with a mass of 290.00 kg.

次回通過

Passes for default location (London). Set your location on the main map for personalized predictions.

高度履歴

Loading altitude history...

軌道要素

1 49734U 21115L 26263.41404506 -.00000055 00000-0 10002-4 0 9998
2 49734 53.1608 340.3230 0001170 79.0189 281.0944 15.31699297265126
Epoch: Sep 20, 2026 • Age: 14 hours

現在のステータス

高度 485.3 km
遠地点 / 近地点 N/A
速度 7.62 km/s
衛星直下点 -42.01°S, 61.16°W
打ち上げ日 Dec 2, 2021
運用期間 4.7 years
タイプ internet

技術仕様

分類 Payload
質量 290.00 kg
乾燥質量 270.00 kg
長さ 0.20 m
スパン 9.00 m
形状 ? Box + pan
製造者 SPXS
バスタイプ Starlink
フェーズステータス In Orbit
所有者/国 SPXS/US

Most Searched